Estación de Algarrobo Bajo INIA

Ultimos registro cada 15 minutos 35
Estación Fecha / Hora Temperatura Humedad Lluvia Velocidad Dirección Radiación Presion
35 Algarrobo Bajo INIA 06-05-2026 08:30 11,2 95,9 0 0,5 59 26 0
34 Algarrobo Bajo INIA 06-05-2026 08:15 11,2 95,9 0 1,2 50 13 0
33 Algarrobo Bajo INIA 06-05-2026 08:00 11,3 95,7 0 1,1 46 5 0
32 Algarrobo Bajo INIA 06-05-2026 07:45 11,3 95,7 0 0,8 57 4 0
31 Algarrobo Bajo INIA 06-05-2026 07:30 11,3 95,6 0 0,1 39 2 0
30 Algarrobo Bajo INIA 06-05-2026 07:15 11,4 95,5 0 0,4 35 1 0
29 Algarrobo Bajo INIA 06-05-2026 07:00 11,5 95,5 0 1,2 41 0 0
28 Algarrobo Bajo INIA 06-05-2026 06:45 11,6 95,2 0 0,2 47 0 0
27 Algarrobo Bajo INIA 06-05-2026 06:30 11,6 95,2 0 0 33 0 0
26 Algarrobo Bajo INIA 06-05-2026 06:15 11,7 95,3 0 0,6 43 0 0
25 Algarrobo Bajo INIA 06-05-2026 06:00 11,7 94,9 0 0,5 42 0 0
24 Algarrobo Bajo INIA 06-05-2026 05:45 11,8 94,7 0 0 54 0 0
23 Algarrobo Bajo INIA 06-05-2026 05:30 11,9 94,4 0 0 46 0 0
22 Algarrobo Bajo INIA 06-05-2026 05:15 11,9 94,3 0 0,2 47 0 0
21 Algarrobo Bajo INIA 06-05-2026 05:00 12,1 94,1 0 1,2 44 0 0
20 Algarrobo Bajo INIA 06-05-2026 04:45 12,2 93,9 0 1,1 41 0 0
19 Algarrobo Bajo INIA 06-05-2026 04:30 12,3 93,4 0 0,2 40 0 0
18 Algarrobo Bajo INIA 06-05-2026 04:15 12,3 93,1 0 0,1 62 0 0
17 Algarrobo Bajo INIA 06-05-2026 04:00 12,4 93 0 0 17 0 0
16 Algarrobo Bajo INIA 06-05-2026 03:45 12,4 93 0 0,3 18 0 0
15 Algarrobo Bajo INIA 06-05-2026 03:30 12,5 92,6 0 0,6 32 0 0
14 Algarrobo Bajo INIA 06-05-2026 03:15 12,6 92,3 0 0,5 39 0 0
13 Algarrobo Bajo INIA 06-05-2026 03:00 12,7 92,3 0 0,8 43 0 0
12 Algarrobo Bajo INIA 06-05-2026 02:45 12,7 92,2 0 0,1 192 0 0
11 Algarrobo Bajo INIA 06-05-2026 02:30 12,8 91,8 0 0,1 190 0 0
10 Algarrobo Bajo INIA 06-05-2026 02:15 12,8 92 0 0 0 0 0
9 Algarrobo Bajo INIA 06-05-2026 02:00 12,8 91,9 0 0,1 162 0 0
8 Algarrobo Bajo INIA 06-05-2026 01:45 12,8 91,8 0 0,1 187 0 0
7 Algarrobo Bajo INIA 06-05-2026 01:30 12,9 91,4 0 0,4 178 0 0
6 Algarrobo Bajo INIA 06-05-2026 01:15 12,9 91,3 0 0 0 0 0
5 Algarrobo Bajo INIA 06-05-2026 01:00 13 91,2 0 0,2 45 0 0
4 Algarrobo Bajo INIA 06-05-2026 00:45 13 91,1 0 0,4 350 0 0
3 Algarrobo Bajo INIA 06-05-2026 00:30 13 91 0 0 222 0 0
2 Algarrobo Bajo INIA 06-05-2026 00:15 13,1 91,1 0 0 300 0 0
1 Algarrobo Bajo INIA 06-05-2026 00:00 13,1 90,8 0 0,1 302 0 0